[Date Prev][Date Next][Thread Prev][Thread Next] - [Date Index][Thread Index][Author Index]
2 Line ISS Keps 10-28
- Subject: [sarex] 2 Line ISS Keps 10-28
- From: "Dave Larsen PhD" <doc@xxxxxxxxxxx>
- Date: Thu, 28 Oct 2004 03:56:33 -0700
ISS
1 25544U 98067A 04302.28562769 .00032851 00000-0 27324-3 0 153
2 25544 51.6372 6.6235 0008523 286.8107 194.1403 15.69782434339228
----
Via the sarex mailing list at AMSAT.ORG courtesy of AMSAT-NA.
To unsubscribe, send "unsubscribe sarex" to Majordomo@amsat.org
AMSAT Home